Time,TemperatureF,DewpointF,PressureIn,WindDirection,WindDirectionDegrees,WindSpeedMPH,WindSpeedGustMPH,Humidity,HourlyPrecipIn,Conditions,Clouds,dailyrainin,SoftwareType,DateUTC
2013-02-20 00:02:00,39.0,23.0,29.82,NW,320,5.0,-999.0,51,-99.99,,,-99.99,,2013-02-20 05:02:00,
2013-02-20 00:12:00,39.0,21.0,29.82,NW,310,6.0,-999.0,48,-99.99,,,-99.99,,2013-02-20 05:12:00,
2013-02-20 00:22:00,39.0,21.0,29.82,NW,310,6.0,-999.0,48,-99.99,,,-99.99,,2013-02-20 05:22:00,
2013-02-20 00:32:00,39.0,21.0,29.82,NW,320,9.0,-999.0,48,-99.99,,,-99.99,,2013-02-20 05:32:00,
2013-02-20 00:43:00,39.0,21.0,29.82,NW,320,9.0,-999.0,48,-99.99,,,-99.99,,2013-02-20 05:43:00,
2013-02-20 00:52:00,39.0,19.0,29.82,NW,310,6.0,-999.0,44,-99.99,,,-99.99,,2013-02-20 05:52:00,
2013-02-20 01:02:00,39.0,19.0,29.82,NW,310,6.0,-999.0,44,-99.99,,,-99.99,,2013-02-20 06:02:00,
2013-02-20 01:11:00,37.0,19.0,29.82,NW,320,7.0,-999.0,47,-99.99,,,-99.99,,2013-02-20 06:11:00,
2013-02-20 01:22:00,37.0,19.0,29.82,NW,320,7.0,-999.0,47,-99.99,,,-99.99,,2013-02-20 06:22:00,
2013-02-20 01:32:00,37.0,19.0,29.83,NNW,330,5.0,-999.0,47,-99.99,,,-99.99,,2013-02-20 06:32:00,
2013-02-20 01:42:00,37.0,19.0,29.83,NNW,330,5.0,-999.0,47,-99.99,,,-99.99,,2013-02-20 06:42:00,
2013-02-20 01:51:00,37.0,19.0,29.84,NW,320,8.0,-999.0,47,-99.99,,,-99.99,,2013-02-20 06:51:00,
2013-02-20 02:02:00,37.0,19.0,29.84,NW,320,8.0,-999.0,47,-99.99,,,-99.99,,2013-02-20 07:02:00,
2013-02-20 02:11:00,37.0,19.0,29.84,NW,320,8.0,-999.0,47,-99.99,,,-99.99,,2013-02-20 07:11:00,
2013-02-20 02:21:00,37.0,19.0,29.84,NW,320,8.0,-999.0,47,-99.99,,,-99.99,,2013-02-20 07:21:00,
2013-02-20 02:32:00,37.0,18.0,29.85,NW,320,8.0,-999.0,44,-99.99,,,-99.99,,2013-02-20 07:32:00,
2013-02-20 02:42:00,37.0,18.0,29.85,NW,320,8.0,-999.0,44,-99.99,,,-99.99,,2013-02-20 07:42:00,
2013-02-20 02:52:00,37.0,18.0,29.85,NNW,330,9.0,-999.0,44,-99.99,,,-99.99,,2013-02-20 07:52:00,
2013-02-20 03:05:00,37.0,18.0,29.85,NNW,330,9.0,-999.0,44,-99.99,,,-99.99,,2013-02-20 08:05:00,
2013-02-20 03:11:00,37.0,18.0,29.85,NNW,340,7.0,-999.0,44,-99.99,,,-99.99,,2013-02-20 08:11:00,
2013-02-20 03:22:00,37.0,18.0,29.85,NNW,340,7.0,-999.0,44,-99.99,,,-99.99,,2013-02-20 08:22:00,
2013-02-20 03:31:00,36.0,18.0,29.86,NNW,330,10.0,15.0,47,-99.99,,,-99.99,,2013-02-20 08:31:00,
2013-02-20 03:42:00,36.0,18.0,29.86,NNW,330,10.0,15.0,47,-99.99,,,-99.99,,2013-02-20 08:42:00,
2013-02-20 03:52:00,36.0,16.0,29.85,NW,320,7.0,-999.0,43,-99.99,,,-99.99,,2013-02-20 08:52:00,
2013-02-20 04:02:00,36.0,16.0,29.85,NW,320,7.0,-999.0,43,-99.99,,,-99.99,,2013-02-20 09:02:00,
2013-02-20 04:11:00,36.0,16.0,29.85,NW,320,7.0,-999.0,43,-99.99,,,-99.99,,2013-02-20 09:11:00,
2013-02-20 04:21:00,36.0,16.0,29.85,NW,320,7.0,-999.0,43,-99.99,,,-99.99,,2013-02-20 09:21:00,
2013-02-20 04:32:00,36.0,16.0,29.88,NNW,330,7.0,-999.0,43,-99.99,,,-99.99,,2013-02-20 09:32:00,
2013-02-20 04:42:00,36.0,16.0,29.88,NNW,330,7.0,-999.0,43,-99.99,,,-99.99,,2013-02-20 09:42:00,
2013-02-20 04:52:00,36.0,16.0,29.88,WNW,300,10.0,17.0,43,-99.99,,,-99.99,,2013-02-20 09:52:00,
2013-02-20 05:01:00,36.0,16.0,29.88,WNW,300,10.0,17.0,43,-99.99,,,-99.99,,2013-02-20 10:01:00,
2013-02-20 05:12:00,34.0,16.0,29.88,NW,320,6.0,-999.0,47,-99.99,,,-99.99,,2013-02-20 10:12:00,
2013-02-20 05:22:00,34.0,16.0,29.88,NW,320,6.0,-999.0,47,-99.99,,,-99.99,,2013-02-20 10:22:00,
2013-02-20 05:32:00,34.0,14.0,29.89,NW,310,8.0,-999.0,43,-99.99,,,-99.99,,2013-02-20 10:32:00,
2013-02-20 05:42:00,34.0,14.0,29.89,NW,310,8.0,-999.0,43,-99.99,,,-99.99,,2013-02-20 10:42:00,
2013-02-20 05:51:00,34.0,12.0,29.90,NW,320,8.0,-999.0,40,-99.99,,,-99.99,,2013-02-20 10:51:00,
2013-02-20 06:02:00,34.0,12.0,29.90,NW,320,8.0,-999.0,40,-99.99,,,-99.99,,2013-02-20 11:02:00,
2013-02-20 06:11:00,34.0,12.0,29.90,NW,320,8.0,-999.0,40,-99.99,,,-99.99,,2013-02-20 11:11:00,
2013-02-20 06:21:00,34.0,12.0,29.90,NW,320,8.0,-999.0,40,-99.99,,,-99.99,,2013-02-20 11:21:00,
2013-02-20 06:32:00,34.0,12.0,29.92,NW,320,5.0,-999.0,40,-99.99,,,-99.99,,2013-02-20 11:32:00,
2013-02-20 06:42:00,34.0,12.0,29.92,NW,320,5.0,-999.0,40,-99.99,,,-99.99,,2013-02-20 11:42:00,
2013-02-20 06:52:00,34.0,12.0,29.93,NW,320,8.0,-999.0,40,-99.99,,,-99.99,,2013-02-20 11:52:00,
2013-02-20 07:02:00,34.0,12.0,29.93,NW,320,8.0,-999.0,40,-99.99,,,-99.99,,2013-02-20 12:02:00,
2013-02-20 07:12:00,34.0,12.0,29.93,NW,320,8.0,-999.0,40,-99.99,,,-99.99,,2013-02-20 12:12:00,
2013-02-20 07:22:00,34.0,12.0,29.93,NW,320,8.0,-999.0,40,-99.99,,,-99.99,,2013-02-20 12:22:00,
2013-02-20 07:32:00,32.0,10.0,29.95,NNW,340,5.0,-999.0,40,-99.99,,,-99.99,,2013-02-20 12:32:00,
2013-02-20 07:42:00,32.0,10.0,29.95,NNW,340,5.0,-999.0,40,-99.99,,,-99.99,,2013-02-20 12:42:00,
2013-02-20 07:53:00,32.0,10.0,29.96,NNW,340,10.0,15.0,40,-99.99,,,-99.99,,2013-02-20 12:53:00,
2013-02-20 08:01:00,32.0,10.0,29.96,NNW,340,10.0,15.0,40,-99.99,,,-99.99,,2013-02-20 13:01:00,
2013-02-20 08:12:00,32.0,10.0,29.96,NNW,340,10.0,15.0,40,-99.99,,,-99.99,,2013-02-20 13:12:00,
2013-02-20 08:22:00,32.0,10.0,29.96,NNW,340,10.0,15.0,40,-99.99,,,-99.99,,2013-02-20 13:22:00,
2013-02-20 08:32:00,32.0,12.0,29.98,NW,320,8.0,-999.0,43,-99.99,,,-99.99,,2013-02-20 13:32:00,
2013-02-20 08:42:00,32.0,12.0,29.98,NW,320,8.0,-999.0,43,-99.99,,,-99.99,,2013-02-20 13:42:00,
2013-02-20 08:52:00,34.0,12.0,29.97,WNW,300,13.0,17.0,40,-99.99,,,-99.99,,2013-02-20 13:52:00,
2013-02-20 09:01:00,34.0,12.0,29.97,WNW,300,13.0,17.0,40,-99.99,,,-99.99,,2013-02-20 14:01:00,
2013-02-20 09:11:00,34.0,12.0,29.97,WNW,300,13.0,17.0,40,-99.99,,,-99.99,,2013-02-20 14:11:00,
2013-02-20 09:22:00,34.0,12.0,29.97,WNW,300,13.0,17.0,40,-99.99,,,-99.99,,2013-02-20 14:22:00,
2013-02-20 09:32:00,32.0,10.0,29.98,NW,310,12.0,18.0,40,-99.99,,,-99.99,,2013-02-20 14:32:00,
2013-02-20 09:42:00,32.0,10.0,29.98,NW,310,12.0,18.0,40,-99.99,,,-99.99,,2013-02-20 14:42:00,
2013-02-20 09:52:00,32.0,9.0,29.98,NW,320,20.0,29.0,36,-99.99,,,-99.99,,2013-02-20 14:52:00,
2013-02-20 10:02:00,32.0,9.0,29.98,NW,320,20.0,29.0,36,-99.99,,,-99.99,,2013-02-20 15:02:00,
2013-02-20 10:11:00,34.0,10.0,29.98,NNW,340,15.0,25.0,37,-99.99,,,-99.99,,2013-02-20 15:11:00,
2013-02-20 10:22:00,34.0,10.0,29.98,NNW,340,15.0,25.0,37,-99.99,,,-99.99,,2013-02-20 15:22:00,
2013-02-20 10:32:00,34.0,10.0,29.99,NNW,340,12.0,23.0,37,-99.99,,,-99.99,,2013-02-20 15:32:00,
2013-02-20 10:42:00,34.0,10.0,29.99,NNW,340,12.0,23.0,37,-99.99,,,-99.99,,2013-02-20 15:42:00,
2013-02-20 10:52:00,34.0,10.0,29.99,NW,310,13.0,-999.0,37,-99.99,,,-99.99,,2013-02-20 15:52:00,
2013-02-20 11:01:00,34.0,10.0,29.99,NW,310,13.0,-999.0,37,-99.99,,,-99.99,,2013-02-20 16:01:00,
2013-02-20 11:12:00,34.0,10.0,29.99,NW,310,13.0,-999.0,37,-99.99,,,-99.99,,2013-02-20 16:12:00,
2013-02-20 11:22:00,34.0,10.0,29.99,NW,310,13.0,-999.0,37,-99.99,,,-99.99,,2013-02-20 16:22:00,
2013-02-20 11:32:00,34.0,10.0,29.99,WNW,300,15.0,25.0,37,-99.99,,,-99.99,,2013-02-20 16:32:00,
2013-02-20 11:42:00,34.0,10.0,29.99,WNW,300,15.0,25.0,37,-99.99,,,-99.99,,2013-02-20 16:42:00,
2013-02-20 11:52:00,36.0,12.0,29.99,WNW,290,17.0,24.0,37,-99.99,,,-99.99,,2013-02-20 16:52:00,
2013-02-20 12:01:00,36.0,12.0,29.99,WNW,290,17.0,24.0,37,-99.99,,,-99.99,,2013-02-20 17:01:00,
2013-02-20 12:11:00,36.0,12.0,29.99,WNW,290,17.0,24.0,37,-99.99,,,-99.99,,2013-02-20 17:11:00,
2013-02-20 12:21:00,36.0,12.0,29.99,WNW,290,17.0,24.0,37,-99.99,,,-99.99,,2013-02-20 17:21:00,
2013-02-20 12:32:00,37.0,14.0,29.98,NNW,330,12.0,16.0,37,-99.99,,,-99.99,,2013-02-20 17:32:00,
2013-02-20 12:42:00,37.0,14.0,29.98,NNW,330,12.0,16.0,37,-99.99,,,-99.99,,2013-02-20 17:42:00,
2013-02-20 12:52:00,36.0,12.0,29.98,NW,310,20.0,25.0,37,-99.99,,,-99.99,,2013-02-20 17:52:00,
2013-02-20 13:02:00,36.0,12.0,29.98,NW,310,20.0,25.0,37,-99.99,,,-99.99,,2013-02-20 18:02:00,
2013-02-20 13:11:00,36.0,12.0,29.97,WNW,300,21.0,31.0,37,-99.99,,,-99.99,,2013-02-20 18:11:00,
2013-02-20 13:22:00,36.0,12.0,29.97,WNW,300,21.0,31.0,37,-99.99,,,-99.99,,2013-02-20 18:22:00,
2013-02-20 13:32:00,36.0,12.0,29.97,WNW,300,12.0,18.0,37,-99.99,,,-99.99,,2013-02-20 18:32:00,
2013-02-20 13:42:00,36.0,12.0,29.97,WNW,300,12.0,18.0,37,-99.99,,,-99.99,,2013-02-20 18:42:00,
2013-02-20 13:52:00,36.0,12.0,29.97,NW,310,9.0,-999.0,37,-99.99,,,-99.99,,2013-02-20 18:52:00,
2013-02-20 14:01:00,36.0,12.0,29.97,NW,310,9.0,-999.0,37,-99.99,,,-99.99,,2013-02-20 19:01:00,
2013-02-20 14:11:00,36.0,12.0,29.97,NW,310,9.0,-999.0,37,-99.99,,,-99.99,,2013-02-20 19:11:00,
2013-02-20 14:21:00,36.0,12.0,29.97,NW,310,9.0,-999.0,37,-99.99,,,-99.99,,2013-02-20 19:21:00,
2013-02-20 14:31:00,36.0,12.0,29.96,North,360,12.0,22.0,37,-99.99,,,-99.99,,2013-02-20 19:31:00,
2013-02-20 14:42:00,36.0,12.0,29.96,North,360,12.0,22.0,37,-99.99,,,-99.99,,2013-02-20 19:42:00,
2013-02-20 14:52:00,37.0,12.0,29.97,NNW,330,10.0,18.0,34,-99.99,,,-99.99,,2013-02-20 19:52:00,
2013-02-20 15:01:00,37.0,12.0,29.97,NNW,330,10.0,18.0,34,-99.99,,,-99.99,,2013-02-20 20:01:00,
2013-02-20 15:11:00,37.0,12.0,29.97,NNW,330,10.0,18.0,34,-99.99,,,-99.99,,2013-02-20 20:11:00,
2013-02-20 15:21:00,37.0,12.0,29.97,NNW,330,10.0,18.0,34,-99.99,,,-99.99,,2013-02-20 20:21:00,
2013-02-20 15:31:00,37.0,12.0,29.97,NNW,340,16.0,21.0,34,-99.99,,,-99.99,,2013-02-20 20:31:00,
2013-02-20 15:41:00,37.0,12.0,29.97,NNW,340,16.0,21.0,34,-99.99,,,-99.99,,2013-02-20 20:41:00,
2013-02-20 15:52:00,37.0,10.0,29.98,NW,310,16.0,24.0,32,-99.99,,,-99.99,,2013-02-20 20:52:00,
2013-02-20 16:01:00,37.0,10.0,29.98,NW,310,16.0,24.0,32,-99.99,,,-99.99,,2013-02-20 21:01:00,
2013-02-20 16:11:00,37.0,10.0,29.98,NW,310,16.0,24.0,32,-99.99,,,-99.99,,2013-02-20 21:11:00,
2013-02-20 16:21:00,37.0,10.0,29.98,NW,310,16.0,24.0,32,-99.99,,,-99.99,,2013-02-20 21:21:00,
2013-02-20 16:32:00,37.0,10.0,29.99,NW,310,15.0,25.0,32,-99.99,,,-99.99,,2013-02-20 21:32:00,
2013-02-20 16:42:00,37.0,10.0,29.99,NW,310,15.0,25.0,32,-99.99,,,-99.99,,2013-02-20 21:42:00,
2013-02-20 16:52:00,37.0,10.0,29.99,NW,320,14.0,28.0,32,-99.99,,,-99.99,,2013-02-20 21:52:00,
2013-02-20 17:02:00,37.0,10.0,29.99,NW,320,14.0,28.0,32,-99.99,,,-99.99,,2013-02-20 22:02:00,
2013-02-20 17:11:00,36.0,10.0,30.00,NNW,330,7.0,-999.0,34,-99.99,,,-99.99,,2013-02-20 22:11:00,
2013-02-20 17:21:00,36.0,10.0,30.00,NNW,330,7.0,-999.0,34,-99.99,,,-99.99,,2013-02-20 22:21:00,
2013-02-20 17:31:00,36.0,10.0,30.01,North,350,15.0,25.0,34,-99.99,,,-99.99,,2013-02-20 22:31:00,
2013-02-20 17:43:00,36.0,10.0,30.01,North,350,15.0,25.0,34,-99.99,,,-99.99,,2013-02-20 22:43:00,
2013-02-20 17:51:00,34.0,10.0,30.02,NW,320,12.0,17.0,37,-99.99,,,-99.99,,2013-02-20 22:51:00,
2013-02-20 18:01:00,34.0,10.0,30.02,NW,320,12.0,17.0,37,-99.99,,,-99.99,,2013-02-20 23:01:00,
2013-02-20 18:12:00,34.0,10.0,30.04,North,350,5.0,-999.0,37,-99.99,,,-99.99,,2013-02-20 23:12:00,
2013-02-20 18:22:00,34.0,10.0,30.04,North,350,5.0,-999.0,37,-99.99,,,-99.99,,2013-02-20 23:22:00,
2013-02-20 18:32:00,32.0,10.0,30.04,NNW,330,12.0,23.0,40,-99.99,,,-99.99,,2013-02-20 23:32:00,
2013-02-20 18:42:00,32.0,10.0,30.04,NNW,330,12.0,23.0,40,-99.99,,,-99.99,,2013-02-20 23:42:00,
2013-02-20 18:52:00,30.0,9.0,30.05,NNW,330,12.0,18.0,39,-99.99,,,-99.99,,2013-02-20 23:52:00,
2013-02-20 19:03:00,30.0,9.0,30.05,NNW,330,12.0,18.0,39,-99.99,,,-99.99,,2013-02-21 00:03:00,
2013-02-20 19:11:00,30.0,9.0,30.07,North,350,17.0,29.0,39,-99.99,,,-99.99,,2013-02-21 00:11:00,
2013-02-20 19:22:00,30.0,9.0,30.07,North,350,17.0,29.0,39,-99.99,,,-99.99,,2013-02-21 00:22:00,
2013-02-20 19:32:00,30.0,9.0,30.09,NNW,330,9.0,-999.0,39,-99.99,,,-99.99,,2013-02-21 00:32:00,
2013-02-20 19:42:00,30.0,9.0,30.09,NNW,330,9.0,-999.0,39,-99.99,,,-99.99,,2013-02-21 00:42:00,
2013-02-20 19:52:00,30.0,9.0,30.09,NNW,330,9.0,-999.0,39,-99.99,,,-99.99,,2013-02-21 00:52:00,
2013-02-20 20:01:00,30.0,9.0,30.09,NNW,330,9.0,-999.0,39,-99.99,,,-99.99,,2013-02-21 01:01:00,
2013-02-20 20:11:00,30.0,9.0,30.09,NNW,330,9.0,-999.0,39,-99.99,,,-99.99,,2013-02-21 01:11:00,
2013-02-20 20:21:00,30.0,9.0,30.09,NNW,330,9.0,-999.0,39,-99.99,,,-99.99,,2013-02-21 01:21:00,
2013-02-20 20:32:00,28.0,5.0,30.10,NNW,330,8.0,-999.0,36,-99.99,,,-99.99,,2013-02-21 01:32:00,
2013-02-20 20:42:00,28.0,5.0,30.10,NNW,330,8.0,-999.0,36,-99.99,,,-99.99,,2013-02-21 01:42:00,
2013-02-20 20:52:00,28.0,5.0,30.10,NNW,330,21.0,27.0,36,-99.99,,,-99.99,,2013-02-21 01:52:00,
2013-02-20 21:02:00,28.0,5.0,30.10,NNW,330,21.0,27.0,36,-99.99,,,-99.99,,2013-02-21 02:02:00,
2013-02-20 21:11:00,28.0,5.0,30.10,NNW,330,21.0,27.0,36,-99.99,,,-99.99,,2013-02-21 02:11:00,
2013-02-20 21:22:00,28.0,5.0,30.10,NNW,330,21.0,27.0,36,-99.99,,,-99.99,,2013-02-21 02:22:00,
2013-02-20 21:32:00,27.0,5.0,30.11,NW,310,14.0,18.0,39,-99.99,,,-99.99,,2013-02-21 02:32:00,
2013-02-20 21:42:00,27.0,5.0,30.11,NW,310,14.0,18.0,39,-99.99,,,-99.99,,2013-02-21 02:42:00,
2013-02-20 21:52:00,27.0,5.0,30.11,NW,310,14.0,18.0,39,-99.99,,,-99.99,,2013-02-21 02:52:00,
2013-02-20 22:02:00,27.0,5.0,30.12,NNW,330,12.0,16.0,39,-99.99,,,-99.99,,2013-02-21 03:02:00,
2013-02-20 22:12:00,27.0,5.0,30.12,NW,320,8.0,-999.0,39,-99.99,,,-99.99,,2013-02-21 03:12:00,
2013-02-20 22:21:00,27.0,5.0,30.12,NW,320,8.0,-999.0,39,-99.99,,,-99.99,,2013-02-21 03:21:00,
2013-02-20 22:32:00,27.0,7.0,30.13,NW,310,10.0,-999.0,42,-99.99,,,-99.99,,2013-02-21 03:32:00,
2013-02-20 22:42:00,27.0,7.0,30.13,NW,310,10.0,-999.0,42,-99.99,,,-99.99,,2013-02-21 03:42:00,
2013-02-20 22:51:00,27.0,7.0,30.13,NNW,330,8.0,-999.0,42,-99.99,,,-99.99,,2013-02-21 03:51:00,
2013-02-20 23:01:00,27.0,7.0,30.13,NNW,330,8.0,-999.0,42,-99.99,,,-99.99,,2013-02-21 04:01:00,
2013-02-20 23:11:00,27.0,7.0,30.13,NNW,330,8.0,-999.0,42,-99.99,,,-99.99,,2013-02-21 04:11:00,
2013-02-20 23:22:00,27.0,7.0,30.13,NNW,330,8.0,-999.0,42,-99.99,,,-99.99,,2013-02-21 04:22:00,
2013-02-20 23:32:00,27.0,7.0,30.13,WNW,290,17.0,24.0,42,-99.99,,,-99.99,,2013-02-21 04:32:00,
2013-02-20 23:42:00,27.0,7.0,30.13,WNW,290,17.0,24.0,42,-99.99,,,-99.99,,2013-02-21 04:42:00,
2013-02-20 23:52:00,27.0,7.0,30.12,NNW,330,8.0,-999.0,42,-99.99,,,-99.99,,2013-02-21 04:52:00,